カタログに戻る

CZ-6A DEB

運用中PO
NORAD 58433·DEBRIS·🇨🇳 China

打ち上げ Nov 11, 2022 から Taiyuan Satellite Launch Center

Loading…

次のパス (今後24時間)

TLE

経年Source: Space-Track

元期: Sep 7, 2026, 16:42 UTC

1 58433U 22151AJB 26250.69589771  .00067692  00000-0  21195-2 0  9991
2 58433  98.7752  55.4346 0043770 156.3303 203.9961 15.31903045180901

AllMySatでCZ-6A DEBをリアルタイム追跡

Download on the App Store